Wind_Speed
37 45 45 43 42 40 32 27 24 32 35 39 38 37 32 26 20 14 11 6 5 11 10 8 14 8 6 7 9 11 12 14 15 16 18 18 19 18 18 18 18 20 18 17 15 15 17 18 20
54 43 43 48 45 40 33 31 30 32 37 39 39 39 31 20 18 18 15 11 8 13 15 17 17 12 9 5 9 11 13 15 15 17 18 17 17 18 19 20 21 20 19 17 17 18 19 19 21
46 59 45 50 48 40 37 35 30 34 40 42 41 39 34 23 22 21 17 10 11 17 22 20 15 16 9 7 8 11 13 16 18 19 19 20 21 23 23 23 22 21 19 18 18 20 21 23 26
40 50 51 47 46 41 41 36 33 37 42 46 41 37 33 32 28 24 22 9 15 19 23 23 23 19 12 10 9 11 14 16 18 19 20 21 22 24 24 24 23 20 18 17 18 20 22 25 27
41 47 52 55 40 44 44 41 37 40 46 51 47 38 33 35 34 33 21 12 18 23 24 26 18 13 13 11 11 11 13 14 16 18 20 21 22 23 25 25 23 21 19 19 20 22 24 25 27
44 45 50 55 41 48 50 54 46 45 48 52 49 42 33 40 34 27 20 18 22 25 23 23 19 14 15 15 13 13 13 13 15 18 20 22 24 25 26 26 25 23 22 23 23 24 27 27 28
49 47 43 46 42 46 49 54 50 48 50 46 45 41 37 36 34 29 25 28 26 27 24 25 25 21 18 18 17 16 13 12 13 16 20 22 23 24 26 26 25 25 25 26 27 28 29 30 29
47 49 45 44 42 44 43 57 48 51 52 48 40 42 41 39 35 26 22 30 28 28 29 26 26 26 23 22 20 18 14 11 13 14 18 21 22 23 24 25 25 26 27 26 28 29 30 31 30
50 49 47 44 39 44 43 53 47 52 51 47 40 41 45 40 40 33 31 28 27 29 28 24 25 25 26 24 22 19 13 10 10 13 15 18 20 20 21 22 24 26 28 29 28 29 32 33 32
53 52 46 43 40 49 47 46 50 50 53 49 42 44 44 47 41 37 31 28 24 28 27 25 22 23 21 23 24 20 14 11 10 14 14 16 19 20 20 21 23 26 29 30 29 28 31 34 33
55 54 47 48 42 46 40 48 63 47 50 49 42 46 33 43 46 47 41 34 29 26 27 25 25 20 22 22 23 19 15 13 13 15 12 16 19 21 20 21 23 25 27 30 32 31 32 34 34
53 52 50 46 42 47 41 43 61 64 45 49 46 45 39 38 43 45 48 42 34 32 32 25 25 25 25 25 23 22 16 16 15 13 13 16 19 22 21 21 22 25 27 30 33 34 35 36 34
51 51 51 49 46 44 44 49 48 71 50 48 52 47 47 41 43 48 47 46 42 45 34 33 28 28 25 25 26 19 20 20 20 17 19 16 18 20 22 21 23 25 27 30 33 35 36 36 34
52 51 53 53 51 48 46 45 51 44 62 49 56 47 51 47 46 49 49 49 50 39 37 30 29 28 28 28 26 20 23 25 23 20 20 18 20 21 23 23 24 26 26 30 34 36 37 36 33
49 51 52 50 51 52 52 42 42 48 52 64 58 60 49 52 50 49 50 49 54 49 35 34 34 35 28 32 32 27 33 27 27 25 26 21 21 24 26 25 26 29 27 29 35 37 38 35 31
40 45 48 48 48 49 47 42 40 44 49 56 64 68 57 55 54 52 55 49 52 52 49 43 42 38 33 33 34 35 33 34 32 27 34 17 24 25 28 27 28 31 28 29 34 37 37 33 31
35 37 40 42 45 46 46 48 43 45 49 43 69 65 72 59 59 59 59 58 55 48 45 45 45 36 37 40 36 39 36 36 35 35 30 27 30 30 28 28 31 33 29 30 34 38 37 33 32
36 37 38 39 42 42 42 46 45 45 47 45 48 63 64 69 61 59 63 61 58 59 56 51 47 45 42 43 45 47 42 40 37 38 31 28 31 32 30 30 33 36 31 32 34 38 38 34 34
36 37 39 40 42 43 43 43 44 43 46 46 48 52 50 78 69 64 61 63 62 60 61 57 54 50 52 51 49 50 46 42 34 36 35 39 30 33 30 31 37 38 34 33 34 37 38 36 36
36 39 41 42 43 45 44 43 45 45 45 49 51 53 56 56 68 75 67 62 62 64 61 57 61 58 57 58 57 54 52 46 40 37 40 36 31 32 29 32 35 37 35 35 36 37 38 37 36
36 39 41 43 44 47 49 47 46 47 48 51 53 53 53 56 60 59 80 75 67 64 65 62 62 65 65 65 65 62 56 55 51 38 37 39 30 35 34 33 38 39 37 36 38 37 37 38 37
32 37 40 42 44 45 47 52 49 48 48 52 54 57 56 57 60 62 68 76 76 74 70 66 65 67 66 66 69 63 55 53 50 40 33 37 42 40 38 37 41 43 42 39 38 37 37 39 37
31 34 36 38 40 45 43 51 53 52 51 52 53 56 60 61 62 64 66 70 76 78 80 78 73 68 67 68 69 66 60 55 53 46 42 48 48 44 39 43 42 45 45 43 37 39 38 40 37
29 31 33 37 37 42 41 44 48 50 51 56 57 59 63 63 64 65 67 68 71 73 74 74 84 77 72 76 69 65 65 60 56 46 44 46 46 46 41 42 44 45 45 45 39 39 40 40 37
25 25 31 34 35 35 41 47 46 51 51 52 57 61 64 68 69 67 68 70 72 71 73 73 71 68 70 68 70 64 61 63 46 48 51 49 49 45 44 43 43 49 52 47 42 40 40 39 37
22 23 26 35 35 35 38 45 49 53 56 57 59 59 62 66 71 72 73 71 72 74 74 74 75 71 68 67 67 66 60 53 44 45 46 48 50 48 43 40 38 46 53 51 46 39 39 36 36
24 20 25 31 35 38 39 41 49 45 50 49 48 47 52 61 65 72 76 76 75 74 73 75 74 71 70 68 64 63 61 56 45 38 43 49 52 47 41 39 42 48 52 48 43 40 38 34 35
22 23 27 33 38 43 39 41 42 24 21 25 25 27 33 43 55 66 72 77 78 77 76 72 71 71 70 69 67 64 62 53 45 40 43 48 50 45 42 43 46 43 43 38 42 38 36 33 34
21 23 28 33 36 41 44 40 30 22 21 22 23 29 30 33 41 52 65 74 76 78 77 74 71 69 67 68 66 63 60 55 44 42 43 49 46 43 45 47 43 41 41 35 40 35 33 32 33
22 23 27 32 35 39 39 21 20 21 23 26 25 28 26 26 29 40 54 65 70 76 75 75 73 70 65 63 64 62 58 52 47 47 49 48 43 45 51 47 43 40 33 31 35 32 31 32 30
Wind_Direction
238 222 214 215 221 214 196 198 204 216 209 199 208 223 214 217 223 217 207 196 294 306 288 299 321 321 327 330 338 354 0 358 4 5 6 5 0 358 6 4 360 352 351 344 338 337 340 343 342
250 232 222 215 216 210 198 198 207 218 211 206 210 220 222 218 216 219 207 211 275 285 279 287 305 297 317 320 339 359 8 1 7 2 5 358 360 0 0 5 7 3 350 341 337 339 339 341 345
246 250 245 220 215 207 200 204 210 218 214 207 217 217 217 213 202 226 227 225 275 288 288 292 296 280 292 301 333 349 357 359 357 352 358 356 0 360 359 2 360 356 350 342 337 340 341 342 347
245 247 249 238 222 206 204 209 212 216 214 211 220 226 220 223 222 223 237 238 272 274 276 279 290 284 277 288 309 336 354 359 357 355 359 356 0 357 357 357 359 354 346 338 336 342 341 341 345
242 242 247 250 242 210 206 208 213 215 213 212 219 223 222 223 228 231 227 246 259 268 269 272 292 271 264 273 288 316 338 356 351 354 357 351 355 357 359 358 358 354 346 340 338 341 342 341 344
241 242 241 243 242 223 205 199 208 212 211 213 221 222 223 225 219 214 215 230 247 259 268 272 271 257 262 266 278 299 324 342 347 353 355 353 355 358 357 357 355 352 350 345 342 342 342 340 340
243 247 241 236 227 225 220 198 206 208 210 213 224 221 223 223 222 218 213 230 244 254 262 265 262 253 263 264 272 287 310 331 334 349 359 2 359 359 356 356 356 352 349 348 344 342 341 339 336
241 245 240 230 226 228 226 197 217 203 205 212 222 223 225 220 217 209 218 229 242 252 258 261 251 246 261 261 265 274 292 311 328 337 349 358 4 2 359 356 353 351 349 345 342 341 337 334 333
239 240 240 241 244 233 215 214 213 211 202 207 213 220 224 222 218 214 223 236 244 247 247 245 242 249 250 252 259 266 277 287 312 323 335 345 354 355 351 350 350 351 349 343 339 338 335 331 329
236 241 242 239 237 236 224 216 206 214 205 203 209 211 218 221 219 216 217 223 226 240 231 230 235 235 235 240 250 259 270 276 290 302 317 332 341 341 344 343 340 342 348 345 339 335 332 329 326
233 240 241 238 242 233 223 214 202 213 209 207 214 211 208 218 222 224 219 218 228 228 229 217 220 230 229 230 239 249 254 267 280 289 302 318 328 332 335 338 340 339 340 342 341 336 330 327 325
232 236 237 234 245 244 236 221 211 205 209 209 213 214 207 213 219 228 229 225 220 219 222 216 220 227 231 230 228 240 245 259 273 265 290 306 318 318 323 329 333 333 336 337 338 334 330 325 322
233 237 242 244 246 248 246 236 224 211 207 213 212 215 212 211 224 227 230 227 223 213 209 219 226 228 228 232 243 227 234 255 266 263 275 286 302 307 311 320 326 327 329 330 331 330 329 323 318
233 237 243 248 249 250 252 239 240 220 216 212 215 213 217 210 216 223 227 223 217 212 189 207 221 232 233 238 247 224 236 250 264 260 261 280 294 300 302 309 314 318 325 324 325 326 326 321 317
239 240 244 247 249 253 256 241 237 231 226 212 212 212 217 216 214 219 223 224 224 216 204 215 221 218 234 243 246 241 243 245 251 250 250 265 290 293 294 299 308 309 317 319 320 323 325 321 317
240 241 244 246 249 253 257 246 243 243 243 234 212 217 212 216 216 218 224 222 226 223 228 219 220 223 228 243 242 250 245 254 230 263 256 278 284 287 289 294 300 302 309 315 317 318 324 321 319
244 245 245 247 249 249 248 250 245 244 245 242 217 218 220 212 218 220 220 223 230 223 221 221 217 234 246 247 256 248 243 252 259 258 261 279 278 283 283 288 293 297 303 309 313 313 323 319 320
250 249 249 248 249 250 249 245 243 242 242 238 239 225 220 226 214 221 224 222 224 232 233 235 239 239 235 239 243 249 248 252 256 265 268 259 270 276 283 287 287 290 297 304 309 312 319 317 316
252 253 252 252 253 251 249 248 251 243 243 241 237 236 239 225 228 220 223 225 224 228 236 237 240 239 241 241 245 248 253 254 252 252 261 260 267 273 283 288 286 291 293 299 305 308 312 315 315
256 256 256 255 255 256 252 248 248 249 247 244 240 239 238 241 230 225 220 224 229 231 233 239 242 242 243 246 244 247 250 249 251 253 258 250 254 276 282 286 291 289 290 294 301 302 308 315 315
259 259 258 258 256 259 259 254 251 251 248 247 244 240 237 237 243 241 224 224 224 228 233 233 238 242 243 246 249 253 251 252 254 247 263 271 272 273 279 282 293 290 287 288 295 296 310 313 311
263 262 261 261 262 261 260 259 253 251 249 250 247 245 241 236 235 237 236 226 227 227 229 234 237 240 245 249 254 254 256 254 248 249 254 257 264 270 273 280 285 287 286 284 286 295 304 309 307
265 266 267 265 266 262 263 262 259 256 254 251 251 251 249 241 234 234 231 237 237 231 232 233 233 236 246 251 253 256 254 252 256 251 255 261 264 269 269 276 279 280 280 279 285 295 299 304 304
267 266 266 267 267 267 271 269 255 261 262 260 252 249 249 249 244 237 234 233 232 235 238 238 238 243 243 246 253 255 257 256 260 258 251 255 259 263 269 268 278 269 274 276 281 289 293 300 302
273 279 279 276 280 284 287 273 265 268 266 264 258 254 249 248 248 245 240 235 234 232 234 235 237 238 241 243 248 252 254 258 260 255 259 256 258 263 269 271 276 267 269 275 279 281 288 295 298
278 286 292 292 297 294 297 292 277 273 270 267 261 256 252 249 247 246 243 241 237 234 232 234 235 236 239 240 243 248 248 252 252 252 258 263 262 263 265 270 271 269 268 272 276 277 284 290 295
282 291 296 298 297 298 301 304 295 288 272 266 258 257 254 249 245 244 244 242 240 237 235 232 233 236 237 240 239 244 246 248 247 248 250 256 259 260 263 263 266 264 268 274 276 273 282 286 291
284 294 303 302 301 299 302 303 306 282 267 261 280 262 271 264 253 245 242 242 241 239 237 235 233 233 235 238 241 240 244 241 241 242 244 253 258 258 259 264 266 269 271 269 267 270 281 284 288
280 295 306 308 307 303 304 309 306 276 281 265 276 272 268 268 272 264 248 241 239 239 238 236 234 233 232 235 240 242 242 243 238 239 244 251 254 252 260 261 265 270 272 265 265 271 275 281 283
281 292 300 309 310 303 302 322 319 288 278 272 274 270 264 271 273 270 268 249 241 236 236 235 233 232 231 232 235 239 242 240 234 232 239 245 246 249 256 260 268 270 262 256 263 269 273 280 283
Height
5832 5837 5841 5847 5854 5858 5866 5872 5873 5869 5868 5868 5869 5869 5874 5878 5882 5889 5888 5889 5891 5893 5894 5895 5895 5896 5895 5893 5892 5892 5891 5890 5888 5888 5888 5888 5887 5887 5884 5883 5881 5881 5878 5877 5875 5874 5872 5869 5867
5827 5830 5836 5839 5844 5853 5863 5865 5865 5865 5864 5866 5867 5867 5872 5878 5881 5884 5885 5887 5889 5891 5892 5892 5894 5895 5895 5894 5893 5892 5890 5890 5888 5889 5888 5888 5887 5885 5883 5882 5880 5878 5876 5874 5872 5870 5868 5866 5864
5819 5822 5828 5833 5837 5849 5856 5857 5860 5860 5860 5862 5864 5866 5871 5875 5877 5881 5881 5885 5888 5890 5890 5890 5892 5893 5895 5894 5893 5892 5891 5890 5889 5890 5888 5888 5886 5884 5882 5880 5879 5876 5874 5872 5871 5868 5866 5863 5861
5812 5816 5819 5825 5835 5842 5847 5850 5851 5853 5856 5858 5858 5861 5869 5871 5874 5875 5877 5882 5885 5887 5888 5888 5890 5892 5893 5893 5892 5891 5889 5888 5888 5889 5887 5886 5884 5883 5881 5879 5879 5877 5875 5873 5870 5867 5865 5863 5859
5804 5809 5812 5816 5831 5833 5835 5841 5844 5846 5849 5853 5853 5857 5865 5867 5869 5872 5874 5878 5882 5883 5884 5886 5888 5890 5891 5891 5891 5889 5888 5886 5887 5887 5885 5885 5883 5881 5880 5878 5877 5876 5874 5872 5870 5866 5862 5861 5857
5797 5801 5804 5811 5824 5816 5812 5824 5830 5835 5841 5846 5849 5854 5857 5860 5862 5866 5870 5873 5876 5878 5880 5883 5886 5888 5889 5889 5889 5888 5887 5886 5886 5886 5885 5884 5882 5880 5879 5878 5876 5874 5872 5870 5867 5865 5861 5858 5856
5789 5792 5797 5803 5810 5808 5815 5818 5820 5826 5835 5839 5842 5849 5853 5855 5858 5860 5866 5870 5872 5874 5877 5880 5882 5884 5886 5888 5887 5887 5886 5885 5885 5885 5884 5882 5881 5879 5879 5878 5875 5872 5870 5867 5865 5863 5859 5857 5853
5783 5784 5789 5795 5802 5802 5802 5808 5820 5816 5827 5832 5836 5841 5845 5847 5852 5856 5860 5865 5867 5871 5873 5876 5878 5880 5882 5885 5886 5885 5886 5885 5884 5884 5883 5882 5879 5879 5878 5877 5874 5871 5868 5866 5864 5861 5858 5855 5852
5774 5775 5782 5789 5792 5788 5793 5803 5809 5814 5817 5823 5829 5834 5840 5843 5846 5849 5854 5859 5862 5866 5868 5871 5873 5876 5879 5882 5883 5883 5884 5883 5882 5882 5882 5880 5879 5878 5877 5875 5873 5870 5867 5865 5862 5859 5857 5854 5850
5764 5767 5775 5782 5778 5782 5792 5794 5801 5808 5812 5817 5822 5827 5833 5837 5839 5843 5849 5853 5857 5859 5863 5866 5869 5871 5874 5878 5879 5879 5881 5881 5879 5879 5880 5878 5877 5876 5875 5873 5870 5868 5865 5863 5861 5857 5854 5852 5848
5756 5760 5767 5773 5771 5777 5783 5785 5789 5799 5808 5813 5816 5821 5824 5830 5833 5836 5840 5846 5850 5854 5857 5860 5863 5867 5869 5872 5874 5875 5877 5877 5876 5877 5877 5876 5876 5875 5873 5871 5868 5866 5864 5861 5858 5854 5851 5849 5846
5748 5752 5757 5764 5767 5772 5775 5778 5781 5789 5800 5803 5807 5814 5818 5823 5826 5832 5834 5837 5842 5846 5850 5855 5857 5860 5864 5867 5869 5871 5873 5873 5873 5874 5873 5873 5873 5872 5871 5867 5865 5863 5861 5858 5855 5851 5848 5846 5842
5740 5744 5750 5757 5760 5762 5765 5770 5771 5781 5786 5793 5798 5801 5809 5815 5821 5824 5825 5830 5833 5835 5840 5846 5850 5854 5857 5860 5862 5864 5868 5868 5869 5870 5870 5870 5870 5868 5867 5865 5862 5860 5859 5856 5852 5849 5845 5842 5838
5733 5737 5741 5746 5750 5752 5755 5762 5766 5783 5774 5779 5788 5794 5800 5804 5809 5814 5816 5817 5819 5825 5823 5834 5841 5846 5850 5852 5854 5858 5861 5863 5865 5866 5866 5866 5866 5865 5863 5862 5859 5857 5856 5853 5849 5846 5842 5839 5834
5727 5731 5732 5737 5740 5741 5745 5753 5762 5765 5758 5764 5775 5783 5789 5792 5796 5803 5807 5811 5813 5817 5819 5827 5834 5836 5841 5846 5850 5853 5855 5856 5859 5860 5859 5861 5862 5861 5859 5858 5855 5854 5852 5849 5845 5842 5838 5833 5829
5721 5723 5726 5729 5732 5735 5737 5744 5751 5750 5750 5756 5766 5769 5776 5781 5785 5791 5796 5802 5805 5808 5811 5816 5823 5830 5834 5838 5844 5846 5848 5848 5848 5853 5854 5853 5856 5857 5855 5854 5851 5849 5848 5845 5841 5838 5833 5828 5825
5713 5715 5719 5722 5723 5727 5731 5734 5741 5743 5745 5748 5755 5761 5766 5769 5774 5776 5782 5790 5795 5798 5803 5808 5811 5818 5825 5830 5835 5838 5840 5841 5843 5844 5845 5848 5850 5851 5850 5849 5846 5844 5844 5840 5837 5834 5829 5824 5821
5706 5708 5710 5713 5716 5718 5723 5725 5729 5736 5738 5742 5745 5748 5754 5761 5763 5767 5772 5777 5783 5789 5796 5801 5806 5811 5815 5819 5824 5829 5833 5835 5838 5836 5839 5843 5844 5845 5844 5844 5841 5838 5839 5835 5832 5830 5825 5820 5817
5698 5699 5700 5703 5705 5709 5713 5717 5718 5725 5727 5732 5735 5738 5742 5751 5755 5760 5762 5767 5771 5777 5783 5791 5798 5801 5803 5809 5815 5819 5823 5828 5828 5832 5834 5838 5837 5838 5839 5838 5835 5833 5833 5831 5827 5825 5820 5815 5812
5692 5691 5692 5694 5695 5697 5701 5707 5709 5712 5717 5718 5723 5728 5734 5737 5740 5744 5752 5759 5763 5766 5771 5777 5783 5788 5794 5800 5804 5808 5813 5816 5820 5823 5827 5828 5828 5831 5831 5831 5828 5827 5827 5825 5822 5819 5815 5810 5806
5683 5682 5683 5684 5686 5687 5688 5694 5699 5702 5706 5707 5711 5717 5723 5725 5727 5730 5736 5744 5751 5756 5761 5766 5771 5777 5782 5788 5792 5797 5802 5808 5813 5809 5820 5821 5819 5822 5824 5823 5821 5820 5820 5818 5817 5813 5809 5805 5801
5675 5674 5674 5675 5675 5677 5679 5676 5685 5689 5694 5695 5698 5701 5707 5714 5719 5720 5722 5728 5734 5742 5750 5754 5760 5764 5769 5775 5780 5786 5791 5798 5806 5808 5813 5814 5813 5814 5816 5815 5813 5812 5813 5812 5810 5806 5803 5800 5796
5668 5667 5666 5667 5667 5667 5670 5667 5672 5675 5677 5681 5684 5685 5688 5696 5703 5707 5713 5716 5722 5729 5735 5740 5746 5751 5758 5761 5767 5773 5779 5786 5794 5800 5804 5806 5806 5806 5808 5807 5805 5805 5804 5804 5803 5800 5797 5795 5791
5659 5659 5658 5657 5658 5660 5659 5660 5665 5662 5663 5662 5666 5670 5671 5674 5681 5690 5696 5704 5710 5714 5720 5725 5730 5738 5745 5751 5755 5761 5766 5774 5783 5791 5794 5796 5796 5796 5796 5797 5797 5796 5795 5794 5794 5794 5792 5788 5785
5653 5652 5649 5650 5648 5649 5646 5648 5657 5649 5647 5646 5647 5649 5653 5657 5661 5669 5677 5685 5691 5697 5704 5709 5715 5723 5731 5737 5742 5748 5754 5762 5771 5779 5786 5786 5786 5787 5787 5788 5788 5787 5787 5787 5786 5787 5784 5781 5779
5647 5645 5642 5637 5637 5637 5636 5635 5638 5634 5632 5628 5627 5631 5634 5638 5643 5649 5656 5663 5670 5680 5687 5693 5701 5712 5718 5725 5732 5737 5745 5752 5760 5766 5774 5777 5776 5776 5776 5778 5778 5778 5778 5777 5778 5779 5776 5774 5772
5638 5638 5636 5632 5629 5625 5624 5621 5622 5617 5615 5608 5610 5611 5613 5618 5623 5626 5632 5642 5652 5660 5669 5679 5690 5700 5707 5714 5721 5727 5734 5741 5749 5758 5762 5765 5765 5766 5768 5769 5768 5767 5766 5768 5770 5769 5767 5768 5765
5631 5630 5628 5623 5618 5612 5614 5609 5607 5605 5602 5599 5599 5602 5602 5602 5602 5606 5615 5623 5631 5642 5651 5664 5675 5687 5696 5703 5710 5717 5724 5731 5739 5745 5749 5752 5754 5756 5759 5759 5759 5758 5759 5759 5761 5760 5761 5760 5758
5625 5622 5617 5613 5610 5603 5600 5602 5600 5598 5595 5593 5592 5591 5592 5592 5592 5591 5595 5601 5612 5622 5635 5649 5659 5671 5682 5691 5698 5706 5713 5720 5730 5734 5737 5740 5743 5748 5749 5749 5751 5751 5750 5751 5753 5752 5753 5752 5751
5617 5614 5610 5606 5604 5598 5594 5592 5591 5589 5587 5585 5583 5581 5582 5582 5580 5577 5576 5582 5590 5604 5616 5628 5643 5656 5669 5678 5686 5694 5701 5709 5719 5724 5725 5730 5735 5738 5739 5742 5743 5742 5741 5744 5744 5745 5745 5745 5743